Погода Рудная Пристань

Погода Рудная Пристань : погода сейчас, прогноз погоды и архив. Всё, что Вы хотите узнать о погоде Рудная Пристань!

Хотите узнать прогноз погоды Рудная Пристань? Тогда Вам сюда: Погода Рудная Пристань

Поиск расширенной информации на нашем сайте:

Другие новости

Новости СМИ2

Главная страница сайта

Новости сайта

03.07.2017

Напоминаем, что на нашем специализированном сайте Метеоцентр.Азия вы можете получить высокодетализированные автоматические прогнозы погоды по пунктам России, СНГ и мира в авиационном формате (включающие направление и скорость ветра, видимость, явления погоды, количество и форму облачности, нижнюю и верхнюю границу облачности).


Погода Рудная Пристань - сегодня

Время (UTC), дата Ветер
(°,м/с) 
Видим.   Явления Облачность Т
(°С)
Тd
(°С)
f(%) Тe
(°С)
Pmin
(гПа)
dP
(гПа)
Po
(мм)
O2
(г/м3)
Тmin Tmax R s Состояние
почвы
21 14.04.18 тихо ()   4000 м  слаб. снег  10/8 300 м средняя 
[Frnb|As op]
-0.1 -0.1 100 -0  1004.6  -1.5  750  302  -0.1    10  равномерный
мокрый или
старый снег
100% 
03 15.04.18 240 (ЮЗ) 10 км  слаб. дождь  10/8 300 м средняя 
[Frnb|As op]
+3.2 +2.1 92 +3  1004.1  -0.2  750  298           
06 15.04.18 120 (ЮВ) 10 км  слаб. дождь  10/8 300 м средняя 
[Frnb|As trans]
+4.3 +1.5 82 +5  1004.3  0.2  750  297           
12 15.04.18 260 (З) 10 км  слаб. дождь  10/8 300 м средняя 
[Frnb|As op]
+2.2 +1 92 +3  1010  3.2  754  301           
15 15.04.18 270 (З) 10 км  слаб. дождь  10/8 300 м средняя 
[Frnb|As op]
+1.9 +1.4 96 +3  1011.5  1.6  755  302           
18 15.04.18 тихо ()   20000 м  {дождь}  10/8 600 м средняя 
[St|As op]
+1.9 +1 94 +2  1011.8  0.3  756  302           
03 16.04.18 140 (ЮВ) 20000 м    6/6 600 м кучево-дожд. 
[Cb cap]
+5.1 +0.6 73 +5  1013  -0.1  757  299           
06 16.04.18 070 (В) 20000 м    8/8 600 м кучево-дожд. 
[Cb cap]
+7 -1.1 56 +7  1012.7  -0.3  756  297           
12 16.04.18 270 (З) 20000 м    ясно 
+3.2 -2.5 66 +4  1016  2.8  759  303           
15 16.04.18 270 (З) 20000 м    ясно 
+0.9 -4.9 65 1017.3  1.2  760  306           
18 16.04.18 260 (З) 20000 м    ясно 
-0.8 -5 73 -2  1017.7  0.4  760  308           
00 17.04.18 100 (В) 20000 м    4/0 верхняя 
[Ci sp]
+4.6 -0.8 68 +3  1017.8  -0.4  760  301           
03 17.04.18 100 (В) 20000 м    3/0 верхняя 
[Ci sp]
+10.5 -0.5 46 +10  1015.8  -2  759  294           
06 17.04.18 080 (В) 20000 м    8/0 средняя, верхняя 
[Ac lent|Ci sp]
+8.6 +0.3 56 +8  1013.6  -2.2  757  296           
12 17.04.18 тихо ()   20000 м    4/3 600 м верхняя 
[Sc|Ci sp]
+2.7 -0.8 78 +3  1014.7  1.3  758  302           
15 17.04.18 330 (СЗ) 20000 м    3/3 600 м 
[Sc]
+1.2 -0.6 88 +2  1014.5  -0.2  758  304           
18 17.04.18 тихо ()   20000 м    3/0 верхняя 
[Ci sp]
-0.6 -1.9 91 -1  1013.5  -1  757  306           
03 18.04.18 060 (СВ) 20000 м  {туман}  3/0 верхняя 
[Ci fib]
+4.8 +1.2 77 +3  1010.4  -1.9  755  299           
06 18.04.18 080 (В) 20000 м  {туман}  3/0 верхняя 
[Ci fib]
+7.1 +1.5 68 +5  1008.6  -1.8  753  296           
12 18.04.18 тихо ()   0500 м  туман  ?/?  
+1.1 +0.9 99 +1  1008.7  0.6  753  302           
15 18.04.18 090 (В) 20000 м  {туман}  4/3 600 м верхняя 
[St|Ci fib]
+1.7 +1.3 97 +2  1008.5  -0.2  753  301           
18 18.04.18 290 (З) 20000 м  {туман}  ясно 
+3.8 +0.4 78 +5  1008.5  753  299           
00 19.04.18 120 (ЮВ) 20000 м    8/3 300 м средняя, верхняя 
[St|Ac trans|Ci sp]
+3.4 +0.3 80 +3  1011.3  1.9  755  301           
03 19.04.18 120 (ЮВ) 4000 м  дымка  10/6 300 м средняя 
[St|Ac und]
+1.8 +0.7 92 1011.9  0.6  756  302           
06 19.04.18 110 (В) 2000 м  дымка  10/10 300 м 
[St]
+1.7 +1.4 98 +1  1011.6  -0.3  755  302           
Время (UTC), дата Ветер
(°,м/с) 
Видим.   Явления Облачность Т
(°С)
Тd
(°С)
f(%) Тe
(°С)
Pmin
(гПа)
dP
(гПа)
Po
(мм)
O2
(г/м3)
Тmin Tmax R s Состояние
почвы

Для получения пояснительной информации подведите курсор к названию столбца.

ПОГОДА Рудная Пристань - архив

Всё, что Вы хотите узнать о погоде Рудная Пристань - удобно и подробно!

Выберите нужную дату (начиная с 1 января 2015* года) и нажмите кнопку "Найти".
Будут отображены архивные сводки погоды по пункту Рудная Пристань, начиная с указанной даты.


Отображать данные в формате CSV (для использования в таблицах Excel)


Внимание! Наш архив погоды предназначен исключительно для личного некоммерческого использования в познавательных целях. Если Вам необходимы официальные справки о состоянии погоды (для производственных, юридических, коммерческих и т.п. целей), обращайтесь в органы Росгидромета.

*Примечание: данная дата относится к архиву по метеостанциям СССР (Россия, СНГ, Балтия).
Архив по метеостанциям Зарубежной Европы и Азии (кроме Китая) хранится 10 дней, по другим регионам земного шара (Китай, Африка, Америка, Австралия, Океания) - 1 день.

Рудная Пристань - район местоположения метеостанции


Название, широта, долгота, высота метеостанции:
Рудная Пристань 44.4°ш. 135.9°д. 34 м над ур. моря [Российская Федерация]

Дополнительная информация

В oтличие oт бoльшинства пoгoдных сайтoв мы публикуем пoдрoбную метеoинфoрмацию в детальнoм прoфессиoнальнoм фoрмате.

Характеристики температуры и влажнoсти вoздуха измеряются на высoте 2 м в тени вдали oт зданий и деревьев.
Скoрoсть ветра измеряется на высoте 10 м (на урoвне рoста челoвека скoрoсть ветра ниже в 1.5-2 раза). Если метеoстанция нахoдится в гoрoде или в лесу, тo скoрoсть ветра занижена на 2-4 м/с пo сравнению с oткрытым местoм. Скoрoсть ветра над акватoриями крупных рек и oзёр, а также на вершинах хoлмoв на 2-5 м/с выше, чем в oбычных услoвиях.
Атмoсфернoе давление в разных тoчках местнoсти мoжет значительнo oтличаться oт давления на метеoстанции, в зависимoсти oт услoвий рельефа (при пoдъёме на 10 м давление пoнижается примернo на 1 мм рт.ст.).